x

Ilm2 - 5 Miles Se Of Wrightsville Beach, Nc (41038) Weather Station

8:08am - Mon 23rd Oct 2017 All times are EDT. -4 hours from GMT.

  • Wind
    18mph, 25mph gusts
  • Sea Temp 74°f
  • Air Temp 76°f
  • Sea Pressure 1021.2mb
  • Ilm2 - 5 Miles Se Of Wrightsville Beach, Nc
  • Ilm2 - 5 Miles Se Of Wrightsville Beach, Nc

More Historic Weather Station data

Upgrade to MSW Pro to gain access to the past 30 days of data for over 8000 Wavebouys and Weather Stations around the globe.

Join

Comparision Forecast

View Surf forecast
   
Mon 10/23 8:08am 18 25 mph 1021.2mb 74f 76f
7:08am 16 22 mph 1021.3mb 74f 75f
6:08am 16 25 mph 1021.4mb 74f 75f
5:08am 16 25 mph 1022mb 74f 75f
4:08am 16 22 mph 1022.1mb 74f 76f
3:08am 16 22 mph 1022.5mb 74f 75f
2:08am 16 25 mph 1022.8mb 74f 75f
1:08am 16 20 mph 1023.5mb 74f 75f
12:08am 13 20 mph 1024.2mb 74f 76f
Sun 10/22 11:08pm 13 20 mph 1024.8mb 74f 76f
10:08pm 11 18 mph 1024.6mb 74f 76f
9:08pm 13 20 mph 1024.5mb 74f 76f
8:08pm 11 16 mph 1024.6mb 74f 75f
7:08pm 9 13 mph 1024.5mb 74f 75f
6:08pm 11 16 mph 1024.3mb 74f 76f
5:08pm 11 16 mph 1024.3mb 74f 75f
4:08pm 13 18 mph 1024.7mb 74f 75f
3:08pm 13 18 mph 1025.1mb 74f 74f
2:08pm 13 18 mph 1025.7mb 74f 74f
1:08pm 13 20 mph 1026.7mb 74f 74f
12:08pm 13 22 mph 1027mb 74f 74f
11:08am 13 20 mph 1027.1mb 74f 74f
10:08am 13 22 mph 1027.3mb 74f 73f
9:08am 13 22 mph 1027.1mb 74f 72f
8:08am 16 22 mph 1026.6mb 74f 72f
7:08am 16 25 mph 1025.8mb 74f 73f
6:08am 16 22 mph 1025.6mb 74f 73f
5:08am 16 22 mph 1025.6mb 74f 73f
4:08am 13 18 mph 1025.4mb 74f 73f
3:08am 13 18 mph 1025.9mb 74f 73f
2:08am 13 18 mph 1026mb 74f 73f
1:08am 13 20 mph 1026.2mb 74f 73f
12:08am 13 20 mph 1026.4mb 74f 73f
Sat 10/21 11:08pm 11 18 mph 1026.8mb 74f 73f
10:08pm 13 20 mph 1026.7mb 74f 74f
9:08pm 13 18 mph 1026.5mb 74f 73f
8:08pm 11 16 mph 1026.2mb 74f 73f
7:08pm 11 18 mph 1026.2mb 74f 73f
6:08pm 11 18 mph 1026mb 74f 73f
5:08pm 13 18 mph 1025.9mb 74f 74f
4:08pm 11 16 mph 1025.7mb 74f 74f
3:08pm 11 16 mph 1025.8mb 74f 74f
2:08pm 11 16 mph 1025.9mb 74f 73f
1:08pm 11 18 mph 1026.5mb 74f 73f
12:08pm 13 20 mph 1026.8mb 74f 72f
11:08am 11 18 mph 1026.6mb 74f 70f
10:08am 11 16 mph 1026.5mb 74f 69f
9:08am 11 16 mph 1026.3mb 74f 70f
8:08am 9 13 mph 1025.1mb 74f 70f
7:08am 11 13 mph 1024.6mb 74f 70f
6:08am 9 13 mph 1024.3mb 74f 69f
5:08am 9 11 mph 1023.9mb 74f 69f
4:08am 7 9 mph 1023.7mb 74f 70f
3:08am 4 9 mph 1023.7mb 74f 71f
2:08am 9 9 mph 1024mb 74f 71f
1:08am 7 9 mph 1024.2mb 74f 72f
12:08am 7 9 mph 1023.9mb 74f 72f
Fri 10/20 11:08pm 9 11 mph 1023.6mb 74f 72f
10:08pm 9 11 mph 1023.1mb 74f 72f
9:08pm 9 11 mph 1022.7mb 74f 73f
8:08pm 9 13 mph 1022.7mb 75f 73f
7:08pm 9 13 mph 1022.2mb 74f 73f
6:08pm 9 13 mph 1021.8mb 75f 74f
5:08pm 11 13 mph 1021.7mb 75f 74f
4:08pm 9 13 mph 1021.9mb 75f 73f
3:08pm 9 11 mph 1022.1mb 75f 73f
2:08pm 7 9 mph 1022.6mb 75f 73f
1:08pm 4 7 mph 1023.5mb 74f 73f
12:08pm 2 9 mph 1024.2mb 74f 71f
10:08am 11 13 mph 1024.7mb 74f 69f
9:08am 7 9 mph 1024.2mb 74f 67f
8:08am 11 16 mph 1023.5mb 74f 66f
7:08am 7 11 mph 1023.1mb 74f 65f
6:08am 9 16 mph 1022.8mb 74f 69f
5:08am 13 18 mph 1022.5mb 74f 70f
4:08am 13 20 mph 1022.4mb 74f 70f
3:08am 13 20 mph 1022.4mb 74f 71f
2:08am 11 16 mph 1022.4mb 74f 71f
1:08am 11 16 mph 1022.6mb 74f 70f
12:08am 11 16 mph 1022.8mb 74f 70f
Thu 10/19 11:08pm 4 7 mph 1022.7mb 74f 73f
10:08pm 4 9 mph 1022.5mb 74f 74f
9:08pm 7 11 mph 1022.3mb 74f 74f
8:08pm 9 13 mph 1022.1mb 74f 74f
7:08pm 9 13 mph 1021.8mb 74f 74f
6:08pm 7 13 mph 1021.5mb 74f 74f
5:08pm 7 11 mph 1021.5mb 74f 75f
4:08pm 9 16 mph 1021.8mb 74f 74f
3:08pm 11 18 mph 1022.2mb 74f 74f
2:08pm 13 20 mph 1022.8mb 74f 73f